Regional Weather Roundup
Issued by NWS

Home | Current Version | Previous Version | Text Only | Print | Product List | Glossary On
Versions: 1 2 3 4 5 6 7 8 9 10 11 12 13 14 15 16 17 18 19 20 21 22 23 24 25 26 27 28 29 30 31 32 33 34 35 36 37 38 39 40 41 42 43 44 45 46 47 48 49 50
000
ASUS46 KLOX 021712
RWRCA

SOUTHERN CALIFORNIA WEATHER ROUNDUP
NATIONAL WEATHER SERVICE OXNARD CALIFORNIA
1000 AM PDT THU OCT 02 2014

NOTE: "FAIR" INDICATES FEW OR NO CLOUDS BELOW 12,000 FEET WITH NO
SIGNIFICANT WEATHER AND/OR OBSTRUCTIONS TO VISIBILITY.

  -  STATIONS PRECEEDED BY AN ASTERISK (*) ARE NOT NWS OR FAA
     STATIONS AND ARE NOT SUBJECT TO NWS AND FAA QUALITY CONTROL.

CAZ041-042-087-021800-
LA AND ORANGE COUNTY COASTAL AREAS


CITY           SKY/WX    TMP DP  RH WIND       PRES   REMARKS
L.A. DOWNTOWN  SUNNY     84  44  24 CALM      29.96S
L.A. AIRPORT   SUNNY     84  42  22 VRB7      29.97R
LONG BEACH     SUNNY     83  51  33 NW7       29.96R

CITY           SKY/WX    TMP DP  RH WIND       PRES   REMARKS
AVALON           N/A     77 N/A N/A MISG        N/A
FULLERTON      SUNNY     91  20   7 E14       29.94S
*GETTY CENTER    N/A     82  21  10 N10G20      N/A
HAWTHORNE      SUNNY     87  45  23 VRB5      29.97R
*LEO CARRILLO    N/A     91  22   8 NE12G30     N/A
*LOS ALAMITOS  SUNNY     87  36  16 E10       29.95R
*REDONDO BEACH   N/A     78  53  42 CALM      29.96S
SANTA ANA      SUNNY     81  62  52 SW5       29.95S
STA MONICA APT SUNNY     83  42  23 E7        29.97R
*STA MON PIER    N/A     85  48  27 N6        29.96R
TORRANCE       SUNNY     86  46  25 W6        29.98R
*UCLA            N/A     82  43  24 E6        29.96R

$$

CAZ547-548-048-021800-
LA COUNTY VALLEYS AND INLAND EMPIRE


CITY           SKY/WX    TMP DP  RH WIND       PRES   REMARKS
BURBANK        SUNNY     79  37  22 SE3       29.99R
VAN NUYS       SUNNY     86  17   8 N16G23    29.99S

CITY           SKY/WX    TMP DP  RH WIND       PRES   REMARKS
CORONA AIRPORT SUNNY     86  25  11 E12       30.00S
*CHATSWORTH      N/A     84  31  15 N7        29.96S
CHINO          SUNNY     86  30  13 SE13      30.00S
MARCH AFB      SUNNY     83  17   8 NE14      30.04S
*NORTHRIDGE      N/A     84  16   8 N7G20       N/A
ONTARIO        SUNNY     81  40  23 W5        30.00S
*PASADENA        N/A     88  46  23 CALM        N/A
POMONA         SUNNY     77  39  25 VRB6      30.03S
RIVERSIDE      SUNNY     84  36  18 SE3       30.01S
SAN BERNARDINO SUNNY    N/A N/A N/A CALM      30.03S
*SAN GABRIEL     N/A     85  32  15 CALM      29.94S
*SAN RAFAEL HI   N/A     88  44  21 CALM        N/A
*SAUGUS          N/A     80  16   9 N16G33      N/A
*WHITEMAN AP   NOT AVBL
*WOODLAND HILL   N/A     84  23  10 VRB8G15     N/A

$$

CAZ054-055-021800-
LA AND SAN BERNARDINO COUNTY MOUNTAINS


CITY           SKY/WX    TMP DP  RH WIND       PRES   REMARKS
*BIG BEAR AIRP SUNNY     57   9  14 E8        30.33S
MT WILSON NWS    N/A     73  14  10 MISG        N/A
SANDBERG       SUNNY     70  11  10 E20G29    30.24R

$$

CAZ028-029-059-060-099-021800-
ANTELOPE VALLEY AND SURROUNDING AREAS


CITY           SKY/WX    TMP DP  RH WIND       PRES   REMARKS
LANCASTER      SUNNY     70  17  13 E8        30.18R
PALMDALE       SUNNY     67  19  16 NE3       30.18S
*POPPY PARK      N/A     72  17  12 E9G63       N/A

CITY           SKY/WX    TMP DP  RH WIND       PRES   REMARKS
29 PALMS       SUNNY     73  25  16 NW5       30.22R
BARSTOW/DAGGET SUNNY     74  19  12 CALM      30.17R
BISHOP         SUNNY     66  24  20 NW5       30.26F
CHINA LAKE     SUNNY     71  21  15 CALM      30.18R
EDWARDS AFB    SUNNY     69  13  11 NE6       30.17R
MOJAVE         FAIR      72  18  13 NE9       30.20R
NEEDLES        SUNNY     80  25  13 N25G37    30.09R
VICTORVILLE    SUNNY     72  19  14 N7        30.19S

$$

CAZ039-040-021800-
VENTURA AND SANTA BARBARA COUNTY COAST


CITY           SKY/WX    TMP DP  RH WIND       PRES   REMARKS
CAMARILLO      SUNNY     90  20   7 NE23G30   29.97R
NWS OXNARD       N/A     89  25  10 NE18      29.95S
OXNARD AIRPORT SUNNY     89  25  10 E17       29.96R
*POINT MUGU    SUNNY     93  27   9 NE18G29   29.96S
SBA APT/GOLETA SUNNY     76  61  59 SE6       29.96S
*VENTURA         N/A     85  38  18 NE13      30.02R

$$

CAZ044-045-021800-
VENTURA COUNTY VALLEYS


CITY           SKY/WX    TMP DP  RH WIND       PRES   REMARKS
*SIMI VALLEY     N/A     83  24  11 NE9       29.95S
*OJAI            N/A     89  39  16 CALM      29.92F
*FILLMORE        N/A     87  40  19 E5        29.90S

$$

CAZ053-021800-
VENTURA COUNTY MOUNTAINS


CITY           SKY/WX    TMP DP  RH WIND       PRES   REMARKS
*LOCKWOOD VLY    N/A     64  14  14 MISG        N/A
*ROSE VALLEY     N/A     77  23  13 MISG        N/A

$$

CAZ034-035-036-021800-
CENTRAL COAST AND SANTA YNEZ VALLEY


CITY           SKY/WX    TMP DP  RH WIND       PRES   REMARKS
SAN LUIS OBISP SUNNY     79  46  31 CALM      29.98R
SANTA MARIA    SUNNY     84  40  21 VRB5      29.99R

CITY           SKY/WX    TMP DP  RH WIND       PRES   REMARKS
*CAL POLY SLO    N/A     81  48  32 NE9G16      N/A
*LOMPOC        SUNNY     75  43  31 E5        29.98S
*PISMO BEACH     N/A     70  50  47 W2        29.98R
*SANTA YNEZ    FAIR      73  39  29 CALM      30.00S

$$

CAZ037-038-051-021800-
SAN LUIS OBISPO COUNTY INTERIOR AND CUYAMA VALLEY


CITY           SKY/WX    TMP DP  RH WIND       PRES   REMARKS
*CUYAMA          N/A     70  43  37 SE3       30.04R
PASO ROBLES    SUNNY     69  37  30 N6        30.06R

$$

CAZ032-033-061-021800-
SOUTHERN DESERTS


CITY           SKY/WX    TMP DP  RH WIND       PRES   REMARKS
BLYTHE         SUNNY     82  25  12 N20       30.05R
IMPERIAL       SUNNY     86  25  11 NE15      30.00S
PALM SPRINGS   SUNNY     88  17   7 NW6       30.05R
THERMAL        SUNNY     86  28  12 N3        30.00R

$$

ELSEWHERE ACROSS THE WESTERN UNITED STATES AND MEXICO


CITY           SKY/WX    TMP DP  RH WIND       PRES   REMARKS
DENVER, CO     MOSUNNY   53  33  46 S8        30.13F
GRAND CANYON,  SUNNY     53  24  32 MISG      30.36R
HONOLULU, HI   PTCLDY    75  70  83 NW5       29.94R
KAHULUI, MAUI  PTCLDY    72  64  78 SE3       29.95R
LAKE TAHOE, CA SUNNY     53  29  39 CALM      30.34R
LAS VEGAS, NV  SUNNY     70  26  19 VRB3      30.20R
MAMMOTH LAKES, FAIR      52  23  32 SE5       30.38S
MEXICO CITY, M PTSUNNY   70  52  52 E3        30.30F
PHOENIX, AZ    SUNNY     82  34  17 NE14      30.03R
PORTLAND, OR   PTSUNNY   54  50  86 NW3       30.29R
RENO, NV       SUNNY     52  27  38 CALM      30.33S
SALT LAKE CITY MOSUNNY   55  35  47 S12       30.29S
SAN DIEGO, CA  SUNNY     77  62  59 NW5       29.96S
SAN FRANCISCO, SUNNY     72  51  47 E5        30.04R
SAN JOSE, CA   SUNNY     70  38  31 CALM      30.03R
SEATTLE, WA    MOSUNNY   59  48  67 NE5       30.31R
TIJUANA, MEX   SUNNY     88  34  14 E6        29.97S

$$

STATION/POSITION TIME  TEMP    WIND        PRES    VSBY  WAVE
                       AIR SEA DIR/SP/G                  HT/PER
                 (UTC) (F)     (DEG/KT/KT) (MB)    (MI)  (FT/S)
POINT ARGUELLO B NOT AVBL
WEST SANTA BARBA 1700   66 65  100/  4/  6 1013.8R         7/11
POINT CONCEPTION NOT AVBL
EAST SANTA BARBA 1700   64 65   70/  4/  4 1014.9R
SANTA MONICA BAY 1700   65 70  210/  4/  4 1014.3R         3/14


USA.gov is the U.S. government's official web portal to all federal, state and local government web resources and services.